{"data":{"norad_id":69875,"intl_designator":"2026-156G","name":"CUBY-3","alt_names":[],"object_type":"PAYLOAD","status":"ACTIVE","operator":null,"country":"GER","launch_date":"2026-07-07","launch_site_code":"AFWTR","launch_vehicle":null,"mission":null,"orbit_class":"UNKNOWN","rcs_meters":null,"size_class":null,"mass_kg":null,"dimensions":null,"purposes":[],"wikipedia_slug":null,"has_3d_model":false,"image_url":null,"decayed_at":null,"tle_current":{"epoch":"2026-09-20T00:53:13.718976Z","epoch_age_seconds":61688,"freshness":"FRESH","line1":"1 69875U 26156G   26263.03696434  .00000260  00000+0  31783-4 0  9992","line2":"2 69875  97.7422 162.1210 0002164 220.0733 140.0326 14.91064926 11135","mean_motion":14.91064926,"eccentricity":0.0002164,"inclination_deg":97.7422,"raan_deg":162.121,"arg_perigee_deg":220.0733,"mean_anomaly_deg":140.0326,"bstar":3.1783e-5,"rev_number":1113,"period_min":96.575271464738,"perigee_km":593.10480260458,"apogee_km":596.12260911007,"semimajor_km":6972.7507058573,"source":"CELESTRAK","updated_at":"2026-09-20T09:00:25.163882Z"}}}